Orbital Elements at Epoch 2459200.5 (2020-Dec-17.0) TDB
Reference: JPL 19 (heliocentric ecliptic J2000)
Element | Value | Uncertainty (1-sigma) | Units |
e | .04056503461060609 | 6.1906e-08 | |
a | 5.299896791918522 | 8.5753e-08 | au |
q | 5.084906295121707 | 3.5663e-07 | au |
i | 2.276945488040798 | 6.6054e-06 | deg |
node | 229.2098707972958 | 0.00011643 | deg |
peri | 164.5907036668243 | 0.00012911 | deg |
M | 8.643210691843175 | 5.4143e-05 | deg |
tp | 2459093.502866118614 (2020-Sep-01.00286612) | 0.00067075 | TDB |
period | 4456.557819844707 12.20 | 0.00010816 2.961e-07 | d yr |
n | .08077983379839658 | 1.9606e-09 | deg/d |
Q | 5.514887288715338 | 8.9232e-08 | au |
|
| | Orbit Determination Parameters
Additional Information
|